Location: Rounton
(54.4000°N, 1.3500°W)
Time: 01:33:08
(UTC+00:00)

Vanguard 3 - Pass Details

Date: 06 December 2021
Orbit: 508 x 3260 km, 33.3° (Epoch: 19 January)

Event Time Altitude Azimuth Distance (km) Brightness Sun altitude
Exits shadow 04:07:04 21° 211° (SSW) 5,272 10.9 -33.9°
Maximum altitude 04:17:27 34° 170° (S) 4,343 10.7 -32.4°
Drops below altitude 10° 04:31:14 10° 114° (ESE) 5,237 12.0 -30.4°
Sets 04:35:14 0° 105° (ESE) 5,906 12.6 -29.9°
